Time,TemperatureF,DewpointF,PressureIn,WindDirection,WindDirectionDegrees,WindSpeedMPH,WindSpeedGustMPH,Humidity,HourlyPrecipIn,Conditions,Clouds,dailyrainin,SolarRadiationWatts/m^2,SoftwareType,DateUTC
2013-02-18 00:01:00,64.0,60.0,-100.00,North,-999,-999.0,-999.0,86,0.00,,,-99.99,0.000000,,2013-02-18 10:01:00,
2013-02-18 00:11:00,64.0,60.0,-100.00,North,-999,-999.0,-999.0,86,0.00,,,-99.99,0.000000,,2013-02-18 10:11:00,
2013-02-18 00:21:00,64.0,60.0,-100.00,North,-999,-999.0,-999.0,86,0.00,,,-99.99,0.000000,,2013-02-18 10:21:00,
2013-02-18 00:31:00,64.0,60.0,-100.00,North,-999,-999.0,-999.0,86,0.00,,,-99.99,0.000000,,2013-02-18 10:31:00,
2013-02-18 00:53:00,64.0,61.0,-100.00,North,-999,-999.0,-999.0,90,0.00,,,0.00,0.000000,,2013-02-18 10:53:00,
2013-02-18 01:01:00,64.0,61.0,-100.00,North,-999,-999.0,-999.0,90,0.00,,,0.00,0.000000,,2013-02-18 11:01:00,
2013-02-18 01:11:00,64.0,61.0,-100.00,North,-999,-999.0,-999.0,90,0.00,,,0.00,0.000000,,2013-02-18 11:11:00,
2013-02-18 01:21:00,64.0,61.0,-100.00,North,-999,-999.0,-999.0,90,0.00,,,0.00,0.000000,,2013-02-18 11:21:00,
2013-02-18 01:31:00,64.0,61.0,-100.00,North,-999,-999.0,-999.0,90,0.00,,,0.00,0.000000,,2013-02-18 11:31:00,
2013-02-18 02:02:00,64.0,61.0,-100.00,North,-999,-999.0,-999.0,90,0.00,,,0.00,0.000000,,2013-02-18 12:02:00,
2013-02-18 02:11:00,64.0,61.0,-100.00,North,-999,-999.0,-999.0,90,0.00,,,0.00,0.000000,,2013-02-18 12:11:00,
2013-02-18 02:21:00,64.0,61.0,-100.00,North,-999,-999.0,-999.0,90,0.00,,,0.00,0.000000,,2013-02-18 12:21:00,
2013-02-18 02:31:00,64.0,61.0,-100.00,North,-999,-999.0,-999.0,90,0.00,,,0.00,0.000000,,2013-02-18 12:31:00,
2013-02-18 03:02:00,64.0,60.0,-100.00,North,-999,-999.0,-999.0,86,0.00,,,0.00,0.000000,,2013-02-18 13:02:00,
2013-02-18 03:12:00,64.0,60.0,-100.00,North,-999,-999.0,-999.0,86,0.00,,,0.00,0.000000,,2013-02-18 13:12:00,
2013-02-18 03:22:00,64.0,60.0,-100.00,North,-999,-999.0,-999.0,86,0.00,,,0.00,0.000000,,2013-02-18 13:22:00,
2013-02-18 03:32:00,64.0,60.0,-100.00,North,-999,-999.0,-999.0,86,0.00,,,0.00,0.000000,,2013-02-18 13:32:00,
2013-02-18 04:02:00,64.0,62.0,-100.00,North,-999,-999.0,-999.0,92,0.00,,,0.00,0.000000,,2013-02-18 14:02:00,
2013-02-18 04:11:00,64.0,62.0,-100.00,North,-999,-999.0,-999.0,92,0.00,,,0.00,0.000000,,2013-02-18 14:11:00,
2013-02-18 04:22:00,64.0,62.0,-100.00,North,-999,-999.0,-999.0,92,0.00,,,0.00,0.000000,,2013-02-18 14:22:00,
2013-02-18 04:31:00,64.0,62.0,-100.00,North,-999,-999.0,-999.0,92,0.00,,,0.00,0.000000,,2013-02-18 14:31:00,
2013-02-18 05:02:00,64.0,62.0,-100.00,North,-999,-999.0,-999.0,94,0.00,,,0.00,0.000000,,2013-02-18 15:02:00,
2013-02-18 05:11:00,64.0,62.0,-100.00,North,-999,-999.0,-999.0,94,0.00,,,0.00,0.000000,,2013-02-18 15:11:00,
2013-02-18 05:22:00,64.0,62.0,-100.00,North,-999,-999.0,-999.0,94,0.00,,,0.00,0.000000,,2013-02-18 15:22:00,
2013-02-18 05:31:00,64.0,62.0,-100.00,North,-999,-999.0,-999.0,94,0.00,,,0.00,0.000000,,2013-02-18 15:31:00,
2013-02-18 06:02:00,65.0,58.0,-100.00,North,-999,-999.0,-999.0,78,0.00,,,0.00,0.000000,,2013-02-18 16:02:00,
2013-02-18 06:11:00,65.0,58.0,-100.00,North,-999,-999.0,-999.0,78,0.00,,,0.00,0.000000,,2013-02-18 16:11:00,
2013-02-18 06:21:00,65.0,58.0,-100.00,North,-999,-999.0,-999.0,78,0.00,,,0.00,0.000000,,2013-02-18 16:21:00,
2013-02-18 06:31:00,65.0,58.0,-100.00,North,-999,-999.0,-999.0,78,0.00,,,0.00,0.000000,,2013-02-18 16:31:00,
2013-02-18 06:53:00,64.0,59.0,-100.00,North,-999,-999.0,-999.0,83,0.00,,,0.00,0.000000,,2013-02-18 16:53:00,
2013-02-18 07:03:00,64.0,59.0,-100.00,North,-999,-999.0,-999.0,83,0.00,,,0.00,0.000000,,2013-02-18 17:03:00,
2013-02-18 07:11:00,64.0,59.0,-100.00,North,-999,-999.0,-999.0,83,0.00,,,0.00,0.000000,,2013-02-18 17:11:00,
2013-02-18 07:21:00,64.0,59.0,-100.00,North,-999,-999.0,-999.0,83,0.00,,,0.00,0.000000,,2013-02-18 17:21:00,
2013-02-18 07:31:00,64.0,59.0,-100.00,North,-999,-999.0,-999.0,83,0.00,,,0.00,0.000000,,2013-02-18 17:31:00,
2013-02-18 08:02:00,65.0,61.0,-100.00,North,-999,-999.0,-999.0,88,0.00,,,0.00,0.000000,,2013-02-18 18:02:00,
2013-02-18 08:11:00,65.0,61.0,-100.00,North,-999,-999.0,-999.0,88,0.00,,,0.00,0.000000,,2013-02-18 18:11:00,
2013-02-18 08:22:00,65.0,61.0,-100.00,North,-999,-999.0,-999.0,88,0.00,,,0.00,0.000000,,2013-02-18 18:22:00,
2013-02-18 08:32:00,65.0,61.0,-100.00,North,-999,-999.0,-999.0,88,0.00,,,0.00,0.000000,,2013-02-18 18:32:00,
2013-02-18 09:02:00,66.0,61.0,-100.00,North,-999,-999.0,-999.0,85,0.00,,,0.00,16.000000,,2013-02-18 19:02:00,
2013-02-18 09:12:00,66.0,61.0,-100.00,North,-999,-999.0,-999.0,85,0.00,,,0.00,16.000000,,2013-02-18 19:12:00,
2013-02-18 09:21:00,66.0,61.0,-100.00,North,-999,-999.0,-999.0,85,0.00,,,0.00,16.000000,,2013-02-18 19:21:00,
2013-02-18 09:32:00,66.0,61.0,-100.00,North,-999,-999.0,-999.0,85,0.00,,,0.00,16.000000,,2013-02-18 19:32:00,
2013-02-18 10:02:00,65.0,60.0,-100.00,North,-999,-999.0,-999.0,83,0.00,,,0.00,115.000000,,2013-02-18 20:02:00,
2013-02-18 10:12:00,65.0,60.0,-100.00,North,-999,-999.0,-999.0,83,0.00,,,0.00,115.000000,,2013-02-18 20:12:00,
2013-02-18 10:22:00,65.0,60.0,-100.00,North,-999,-999.0,-999.0,83,0.00,,,0.00,115.000000,,2013-02-18 20:22:00,
2013-02-18 10:32:00,65.0,60.0,-100.00,North,-999,-999.0,-999.0,83,0.00,,,0.00,115.000000,,2013-02-18 20:32:00,
2013-02-18 11:11:00,68.0,59.0,-100.00,North,-999,-999.0,-999.0,73,0.00,,,0.00,455.000000,,2013-02-18 21:11:00,
2013-02-18 11:21:00,68.0,59.0,-100.00,North,-999,-999.0,-999.0,73,0.00,,,0.00,455.000000,,2013-02-18 21:21:00,
2013-02-18 11:32:00,68.0,59.0,-100.00,North,-999,-999.0,-999.0,73,0.00,,,0.00,455.000000,,2013-02-18 21:32:00,
2013-02-18 12:02:00,69.0,58.0,-100.00,North,-999,-999.0,-999.0,69,0.00,,,0.00,762.000000,,2013-02-18 22:02:00,
2013-02-18 12:12:00,69.0,58.0,-100.00,North,-999,-999.0,-999.0,69,0.00,,,0.00,762.000000,,2013-02-18 22:12:00,
2013-02-18 12:22:00,69.0,58.0,-100.00,North,-999,-999.0,-999.0,69,0.00,,,0.00,762.000000,,2013-02-18 22:22:00,
2013-02-18 12:32:00,69.0,58.0,-100.00,North,-999,-999.0,-999.0,69,0.00,,,0.00,762.000000,,2013-02-18 22:32:00,
2013-02-18 13:02:00,71.0,61.0,-100.00,North,-999,-999.0,-999.0,70,0.00,,,0.00,946.000000,,2013-02-18 23:02:00,
2013-02-18 13:22:00,71.0,61.0,-100.00,North,-999,-999.0,-999.0,70,0.00,,,0.00,946.000000,,2013-02-18 23:22:00,
2013-02-18 13:32:00,71.0,61.0,-100.00,North,-999,-999.0,-999.0,70,0.00,,,0.00,946.000000,,2013-02-18 23:32:00,
2013-02-18 14:02:00,72.0,59.0,-100.00,North,-999,-999.0,-999.0,64,0.00,,,0.00,955.000000,,2013-02-19 00:02:00,
2013-02-18 14:12:00,72.0,59.0,-100.00,North,-999,-999.0,-999.0,64,0.00,,,0.00,955.000000,,2013-02-19 00:12:00,
2013-02-18 14:22:00,72.0,59.0,-100.00,North,-999,-999.0,-999.0,64,0.00,,,0.00,955.000000,,2013-02-19 00:22:00,
2013-02-18 14:32:00,72.0,59.0,-100.00,North,-999,-999.0,-999.0,64,0.00,,,0.00,955.000000,,2013-02-19 00:32:00,
2013-02-18 15:03:00,72.0,59.0,-100.00,North,-999,-999.0,-999.0,64,0.00,,,0.00,1004.000000,,2013-02-19 01:03:00,
2013-02-18 15:13:00,72.0,59.0,-100.00,North,-999,-999.0,-999.0,64,0.00,,,0.00,1004.000000,,2013-02-19 01:13:00,
2013-02-18 15:22:00,72.0,59.0,-100.00,North,-999,-999.0,-999.0,64,0.00,,,0.00,1004.000000,,2013-02-19 01:22:00,
2013-02-18 15:32:00,72.0,59.0,-100.00,North,-999,-999.0,-999.0,64,0.00,,,0.00,1004.000000,,2013-02-19 01:32:00,
2013-02-18 16:02:00,70.0,59.0,-100.00,North,-999,-999.0,-999.0,67,0.00,,,0.00,888.000000,,2013-02-19 02:02:00,
2013-02-18 16:12:00,70.0,59.0,-100.00,North,-999,-999.0,-999.0,67,0.00,,,0.00,888.000000,,2013-02-19 02:12:00,
2013-02-18 16:22:00,70.0,59.0,-100.00,North,-999,-999.0,-999.0,67,0.00,,,0.00,888.000000,,2013-02-19 02:22:00,
2013-02-18 16:32:00,70.0,59.0,-100.00,North,-999,-999.0,-999.0,67,0.00,,,0.00,888.000000,,2013-02-19 02:32:00,
2013-02-18 16:54:00,69.0,58.0,-100.00,North,-999,-999.0,-999.0,67,0.00,,,0.00,685.000000,,2013-02-19 02:54:00,
2013-02-18 17:13:00,69.0,58.0,-100.00,North,-999,-999.0,-999.0,67,0.00,,,0.00,685.000000,,2013-02-19 03:13:00,
2013-02-18 17:22:00,69.0,58.0,-100.00,North,-999,-999.0,-999.0,67,0.00,,,0.00,685.000000,,2013-02-19 03:22:00,
2013-02-18 17:32:00,69.0,58.0,-100.00,North,-999,-999.0,-999.0,67,0.00,,,0.00,685.000000,,2013-02-19 03:32:00,
2013-02-18 18:02:00,70.0,62.0,-100.00,North,-999,-999.0,-999.0,76,0.00,,,0.00,453.000000,,2013-02-19 04:02:00,
2013-02-18 18:13:00,70.0,62.0,-100.00,North,-999,-999.0,-999.0,76,0.00,,,0.00,453.000000,,2013-02-19 04:13:00,
2013-02-18 18:22:00,70.0,62.0,-100.00,North,-999,-999.0,-999.0,76,0.00,,,0.00,453.000000,,2013-02-19 04:22:00,
2013-02-18 18:32:00,70.0,62.0,-100.00,North,-999,-999.0,-999.0,76,0.00,,,0.00,453.000000,,2013-02-19 04:32:00,
2013-02-18 19:02:00,68.0,60.0,-100.00,North,-999,-999.0,-999.0,76,0.00,,,0.00,158.000000,,2013-02-19 05:02:00,
2013-02-18 19:12:00,68.0,60.0,-100.00,North,-999,-999.0,-999.0,76,0.00,,,0.00,158.000000,,2013-02-19 05:12:00,
2013-02-18 19:22:00,68.0,60.0,-100.00,North,-999,-999.0,-999.0,76,0.00,,,0.00,158.000000,,2013-02-19 05:22:00,
2013-02-18 19:32:00,68.0,60.0,-100.00,North,-999,-999.0,-999.0,76,0.00,,,0.00,158.000000,,2013-02-19 05:32:00,
2013-02-18 20:02:00,66.0,60.0,-100.00,North,-999,-999.0,-999.0,81,0.00,,,0.00,9.000000,,2013-02-19 06:02:00,
2013-02-18 20:11:00,66.0,60.0,-100.00,North,-999,-999.0,-999.0,81,0.00,,,0.00,9.000000,,2013-02-19 06:11:00,
2013-02-18 20:21:00,66.0,60.0,-100.00,North,-999,-999.0,-999.0,81,0.00,,,0.00,9.000000,,2013-02-19 06:21:00,
2013-02-18 20:32:00,66.0,60.0,-100.00,North,-999,-999.0,-999.0,81,0.00,,,0.00,9.000000,,2013-02-19 06:32:00,
2013-02-18 21:01:00,66.0,60.0,-100.00,North,-999,-999.0,-999.0,82,0.00,,,0.00,0.000000,,2013-02-19 07:01:00,
2013-02-18 21:11:00,66.0,60.0,-100.00,North,-999,-999.0,-999.0,82,0.00,,,0.00,0.000000,,2013-02-19 07:11:00,
2013-02-18 21:21:00,66.0,60.0,-100.00,North,-999,-999.0,-999.0,82,0.00,,,0.00,0.000000,,2013-02-19 07:21:00,
2013-02-18 21:32:00,66.0,60.0,-100.00,North,-999,-999.0,-999.0,82,0.00,,,0.00,0.000000,,2013-02-19 07:32:00,
2013-02-18 22:01:00,66.0,60.0,-100.00,North,-999,-999.0,-999.0,81,0.00,,,0.00,0.000000,,2013-02-19 08:01:00,
2013-02-18 22:11:00,66.0,60.0,-100.00,North,-999,-999.0,-999.0,81,0.00,,,0.00,0.000000,,2013-02-19 08:11:00,
2013-02-18 22:21:00,66.0,60.0,-100.00,North,-999,-999.0,-999.0,81,0.00,,,0.00,0.000000,,2013-02-19 08:21:00,
2013-02-18 22:31:00,66.0,60.0,-100.00,North,-999,-999.0,-999.0,81,0.00,,,0.00,0.000000,,2013-02-19 08:31:00,
2013-02-18 23:01:00,66.0,60.0,-100.00,North,-999,-999.0,-999.0,80,0.00,,,0.00,0.000000,,2013-02-19 09:01:00,
2013-02-18 23:11:00,66.0,60.0,-100.00,North,-999,-999.0,-999.0,80,0.00,,,0.00,0.000000,,2013-02-19 09:11:00,
2013-02-18 23:21:00,66.0,60.0,-100.00,North,-999,-999.0,-999.0,80,0.00,,,0.00,0.000000,,2013-02-19 09:21:00,
2013-02-18 23:31:00,66.0,60.0,-100.00,North,-999,-999.0,-999.0,80,0.00,,,0.00,0.000000,,2013-02-19 09:31:00,